West Chatham, MA

3:57 PM EST on January 20, 2017 (GMT -0500)
Chatham Municipal

Weather History for KCQX - October, 2012

Change the Weather History Date:

Wednesday, October 3, 2012

  Actual Average Record
Temperature  
Mean Temperature 63 °F -  
Max Temperature 64 °F 62 °F 79 °F (2013)
Min Temperature 62 °F 48 °F 42 °F (1997)
Degree Days  
Heating Degree Days 2    
Growing Degree Days 13 (Base 50)    
Moisture  
Dew Point 63 °F    
Average Humidity 97    
Maximum Humidity 100    
Minimum Humidity 81    
Precipitation  
Precipitation 0.05 in - - ()
Sea Level Pressure  
Sea Level Pressure 30.09 in    
Wind  
Wind Speed 5 mph (ESE)    
Max Wind Speed 8 mph    
Max Gust Speed -    
Visibility 2 miles    
Events Fog , Rain    
Averages and records for this station are not official NWS values.
T = Trace of Precipitation, MM = Missing Value Source: NWS Daily Summary

Daily Weather History Graph

Daily Weather History Graph

Search for Another Location

Airport or City:

Trip Planner

Search our weather history database for the weather conditions in past years. The results will help you decide how hot, cold, wet, or windy it might be!

Date:

Astronomy

Oct. 03, 2012 Rise Set
Actual Time 6:39 AM EDT 6:17 PM EDT
Civil Twilight 6:11 AM EDT 6:45 PM EDT
Nautical Twilight 5:39 AM EDT 7:17 PM EDT
Astronomical Twilight 5:07 AM EDT 7:49 PM EDT
Moon 8:04 PM EDT (10/3) 10:02 AM EDT (10/3)
Length of Visible Light 12h 33m
Length of Day
11h 38m
Waning Gibbous, 89% of the Moon is Illuminated
Oct 3
Waning Gibbous
Oct 8
Last Quarter
Oct 15
New
Oct 21
First Quarter
Oct 29
Full

Hourly Weather History & Observations

Time (EDT) Temp. Dew Point Humidity Pressure Visibility Wind Dir Wind Speed Gust Speed Precip Events Conditions
12:03 AM 62.6 °F 57.2 °F 82% 30.06 in 10.0 mi East 5.8 mph - N/A   Overcast
12:52 AM 63.0 °F 57.0 °F 81% 30.06 in 10.0 mi East 6.9 mph - N/A   Overcast
1:52 AM 62.1 °F 59.0 °F 90% 30.06 in 10.0 mi East 5.8 mph - 0.00 in   Overcast
2:23 AM 62.6 °F 60.8 °F 94% 30.05 in 10.0 mi East 5.8 mph - N/A   Overcast
2:52 AM 63.0 °F 60.1 °F 90% 30.05 in 10.0 mi East 5.8 mph - N/A   Overcast
3:52 AM 63.0 °F 61.0 °F 93% 30.05 in 10.0 mi East 6.9 mph - 0.00 in   Overcast
4:42 AM 62.6 °F 60.8 °F 94% 30.05 in 2.5 mi East 5.8 mph - N/A   Overcast
4:52 AM 63.0 °F 62.1 °F 97% 30.06 in 1.0 mi East 5.8 mph - N/A   Overcast
4:59 AM 62.6 °F 62.6 °F 100% 30.05 in 0.8 mi East 4.6 mph - N/A   Overcast
5:52 AM 63.0 °F 62.1 °F 97% 30.07 in 0.5 mi East 6.9 mph - N/A Fog Fog
6:38 AM 62.6 °F 62.6 °F 100% 30.07 in 1.5 mi East 6.9 mph - N/A   Overcast
6:47 AM 62.6 °F 62.6 °F 100% 30.07 in 2.5 mi ESE 4.6 mph - N/A   Overcast
6:52 AM 63.0 °F 63.0 °F 100% 30.07 in 3.0 mi ESE 4.6 mph - N/A   Overcast
7:02 AM 62.6 °F 62.6 °F 100% 30.07 in 2.5 mi ESE 6.9 mph - 0.00 in Rain Light Rain
7:52 AM 63.0 °F 63.0 °F 100% 30.08 in 2.0 mi ESE 5.8 mph - 0.01 in   Overcast
8:17 AM 62.6 °F 62.6 °F 100% 30.08 in 1.2 mi East 5.8 mph - N/A   Overcast
8:28 AM 62.6 °F 62.6 °F 100% 30.08 in 0.8 mi ENE 4.6 mph - N/A   Overcast
8:52 AM 63.0 °F 63.0 °F 100% 30.10 in 0.8 mi East 4.6 mph - N/A   Overcast
9:44 AM 64.4 °F 64.4 °F 100% 30.10 in 0.2 mi East 5.8 mph - N/A Fog Fog
9:52 AM 64.0 °F 64.0 °F 100% 30.11 in 0.2 mi East 5.8 mph - N/A Fog Fog
10:30 AM 64.4 °F 64.4 °F 100% 30.10 in 0.5 mi East 6.9 mph - N/A Fog Fog
10:39 AM 64.4 °F 64.4 °F 100% 30.10 in 0.2 mi Variable 5.8 mph - N/A Fog Fog
10:52 AM 64.9 °F 64.0 °F 97% 30.10 in 0.2 mi East 5.8 mph - N/A Fog Fog
11:06 AM 64.4 °F 64.4 °F 100% 30.10 in 0.5 mi Variable 5.8 mph - N/A Fog Fog
11:52 AM 64.0 °F 64.0 °F 100% 30.10 in 0.5 mi ESE 8.1 mph - N/A Fog Fog
12:10 PM 64.4 °F 64.4 °F 100% 30.09 in 1.5 mi ESE 8.1 mph - N/A   Overcast
12:34 PM 64.4 °F 64.4 °F 100% 30.09 in 1.2 mi ESE 5.8 mph - N/A   Overcast
12:52 PM 64.9 °F 64.0 °F 97% 30.09 in 1.5 mi ESE 6.9 mph - N/A   Overcast
1:05 PM 64.4 °F 64.4 °F 100% 30.08 in 3.0 mi Variable 4.6 mph - N/A   Overcast
1:19 PM 64.4 °F 64.4 °F 100% 30.09 in 1.8 mi SE 5.8 mph - N/A   Overcast
1:31 PM 64.4 °F 62.6 °F 94% 30.09 in 2.5 mi SE 8.1 mph - N/A   Overcast
1:38 PM 64.4 °F 62.6 °F 94% 30.09 in 4.0 mi SE 5.8 mph - N/A   Overcast
1:46 PM 64.4 °F 62.6 °F 94% 30.09 in 1.8 mi SE 5.8 mph - N/A   Overcast
1:52 PM 64.0 °F 63.0 °F 96% 30.09 in 1.0 mi ESE 6.9 mph - N/A   Overcast
2:00 PM 64.4 °F 64.4 °F 100% 30.08 in 0.8 mi ESE 6.9 mph - N/A   Overcast
2:10 PM 64.4 °F 62.6 °F 94% 30.09 in 1.0 mi SE 5.8 mph - N/A   Overcast
2:29 PM 64.4 °F 62.6 °F 94% 30.09 in 0.8 mi ESE 6.9 mph - N/A   Overcast
2:52 PM 64.0 °F 63.0 °F 96% 30.09 in 0.8 mi Variable 5.8 mph - 0.01 in   Overcast
3:23 PM 64.4 °F 64.4 °F 100% 30.08 in 1.0 mi SE 4.6 mph - 0.00 in Rain Light Rain
3:52 PM 64.0 °F 63.0 °F 96% 30.09 in 1.0 mi ESE 4.6 mph - 0.01 in   Overcast
4:00 PM 64.4 °F 64.4 °F 100% 30.09 in 0.8 mi SE 3.5 mph - N/A   Overcast
4:52 PM 63.0 °F 63.0 °F 100% 30.10 in 0.2 mi ESE 4.6 mph - N/A Fog Fog
5:52 PM 63.0 °F 63.0 °F 100% 30.10 in 0.2 mi SE 3.5 mph - N/A Fog Fog
6:52 PM 64.0 °F 63.0 °F 96% 30.11 in 0.2 mi Calm Calm - 0.01 in Fog Fog
7:41 PM 64.4 °F 62.6 °F 94% 30.11 in 0.5 mi Calm Calm - N/A Fog Fog
7:52 PM 64.0 °F 63.0 °F 96% 30.11 in 0.5 mi Calm Calm - N/A Fog Fog
8:52 PM 64.0 °F 63.0 °F 96% 30.12 in 0.5 mi Calm Calm - N/A Fog Fog
9:52 PM 63.0 °F 63.0 °F 100% 30.14 in 0.5 mi Calm Calm - N/A Fog Fog
10:00 PM 62.6 °F 62.6 °F 100% 30.13 in 0.2 mi Calm Calm - N/A Fog Fog
10:32 PM 62.6 °F 62.6 °F 100% 30.13 in 0.5 mi Calm Calm - N/A Fog Fog
10:52 PM 64.0 °F 63.0 °F 96% 30.14 in 0.5 mi Calm Calm - N/A Fog Fog
11:52 PM 64.0 °F 63.0 °F 96% 30.14 in 0.5 mi Calm Calm - 0.01 in Fog Fog